This is the latest recevied weather packets stored in our database for station/object N7BTW-13. If no packets are shown the sender has not sent any weather packets the latest 10 day(s).
| Time | Temp. | Humidity | Pressure | Rain* | Wind** | Luminosity | Snow |
|---|---|---|---|---|---|---|---|
| 1777060807 | 20.56° C | 35% | 1017.7 hPa | 0 mm | - | - | - |
| 1777060207 | 20.56° C | 36% | 1017.8 hPa | 0 mm | - | - | - |
| 1777059608 | 20.56° C | 38% | 1017.9 hPa | 0 mm | - | - | - |
| 1777059006 | 20° C | 37% | 1018 hPa | 0 mm | - | - | - |
| 1777058405 | 19.44° C | 36% | 1018.2 hPa | 0 mm | - | - | - |
| 1777057806 | 19.44° C | 35% | 1018.4 hPa | 0 mm | - | - | - |
| 1777057208 | 18.89° C | 38% | 1018.5 hPa | 0 mm | - | - | - |
| 1777056607 | 18.89° C | 39% | 1018.6 hPa | 0 mm | - | - | - |
| 1777056006 | 18.89° C | 39% | 1018.7 hPa | 0 mm | - | - | - |
| 1777055407 | 18.89° C | 40% | 1018.8 hPa | 0 mm | - | - | - |
| 1777054808 | 18.89° C | 43% | 1018.9 hPa | 0 mm | - | - | - |
| 1777054208 | 18.33° C | 45% | 1018.9 hPa | 0 mm | - | - | - |
| 1777053608 | 17.78° C | 46% | 1019.1 hPa | 0 mm | - | - | - |
| 1777053007 | 17.22° C | 43% | 1019.1 hPa | 0 mm | - | - | - |
| 1777052412 | 17.22° C | 48% | 1019.2 hPa | 0 mm | - | - | - |
| 1777051808 | 16.67° C | 48% | 1019.3 hPa | 0 mm | - | - | - |
| 1777051205 | 16.11° C | 58% | 1019.3 hPa | 0 mm | - | - | - |
| 1777050607 | 15.56° C | 66% | 1019.4 hPa | 0 mm | - | - | - |
| 1777050009 | 15° C | 71% | 1019.5 hPa | 0 mm | - | - | - |
| 1777049408 | 13.89° C | 68% | 1019.6 hPa | 0 mm | - | - | - |
| 1777048811 | 13.33° C | 74% | 1019.7 hPa | 0 mm | - | - | - |
| 1777048209 | 12.78° C | 76% | 1019.7 hPa | 0 mm | - | - | - |
| 1777047610 | 11.67° C | 79% | 1019.8 hPa | 0 mm | - | - | - |
| 1777047007 | 11.67° C | 82% | 1019.9 hPa | 0 mm | - | - | - |
| 1777046408 | 10.56° C | 85% | 1020 hPa | 0 mm | - | - | - |
* Rain latest hour (hover to see other rain measurements)
** Current wind speed in m/s (hover to see current wind gust speed)